This is the latest recevied weather packets stored in our database for station/object N4MGC. If no packets are shown the sender has not sent any weather packets the latest 10 day(s).
| Time | Temp. | Humidity | Pressure | Rain* | Wind** | Luminosity | Snow |
|---|---|---|---|---|---|---|---|
| 1778032927 | 20° C | 81% | 1010.9 hPa | 0 mm | - | 0 W/m² | - |
| 1778032624 | 20° C | 82% | 1010.6 hPa | 0 mm | - | 0 W/m² | - |
| 1778032322 | 20.56° C | 82% | 1010.5 hPa | 0 mm | - | 0 W/m² | - |
| 1778032019 | 20.56° C | 81% | 1010.7 hPa | 0 mm | - | 0 W/m² | - |
| 1778031714 | 20.56° C | 82% | 1010.8 hPa | 0 mm | - | 0 W/m² | - |
| 1778031412 | 20.56° C | 81% | 1010.6 hPa | 0 mm | - | 0 W/m² | - |
| 1778031109 | 20.56° C | 81% | 1010.4 hPa | 0 mm | - | 0 W/m² | - |
| 1778030805 | 20.56° C | 81% | 1010.3 hPa | 0 mm | - | 0 W/m² | - |
| 1778030502 | 20.56° C | 83% | 1010.7 hPa | 0 mm | - | 0 W/m² | - |
| 1778030200 | 20.56° C | 82% | 1010.7 hPa | 0 mm | - | 0 W/m² | - |
| 1778029896 | 20.56° C | 83% | 1010.7 hPa | 0 mm | - | 0 W/m² | - |
| 1778029595 | 20.56° C | 80% | 1011 hPa | 0 mm | - | 0 W/m² | - |
| 1778029291 | 21.11° C | 80% | 1011.1 hPa | 0 mm | - | 0 W/m² | - |
| 1778028988 | 21.11° C | 79% | 1011.1 hPa | 0 mm | - | 0 W/m² | - |
| 1778028685 | 21.11° C | 79% | 1010.7 hPa | 0 mm | - | 0 W/m² | - |
| 1778028381 | 21.11° C | 78% | 1011.2 hPa | 0 mm | - | 0 W/m² | - |
| 1778028079 | 21.67° C | 77% | 1010.9 hPa | 0 mm | - | 0 W/m² | - |
| 1778027775 | 21.67° C | 76% | 1011 hPa | 0 mm | - | 0 W/m² | - |
| 1778027471 | 21.67° C | 76% | 1011.2 hPa | 0 mm | - | 0 W/m² | - |
| 1778027167 | 21.67° C | 76% | 1011.1 hPa | 0 mm | - | 3 W/m² | - |
| 1778026863 | 22.22° C | 74% | 1010.8 hPa | 0 mm | - | 8 W/m² | - |
| 1778026559 | 22.22° C | 74% | 1010.9 hPa | 0 mm | - | 11 W/m² | - |
| 1778026257 | 22.22° C | 73% | 1010.7 hPa | 0 mm | - | 14 W/m² | - |
| 1778025954 | 22.22° C | 74% | 1010.7 hPa | 0 mm | - | 16 W/m² | - |
| 1778025651 | 22.78° C | 75% | 1010.9 hPa | 0 mm | - | 22 W/m² | - |
* Rain latest hour (hover to see other rain measurements)
** Current wind speed in m/s (hover to see current wind gust speed)